�������l�o���
Date,Time,MP-1(��Sv/h),MP-2(��Sv/h),MP-3(��Sv/h),MP-4(��Sv/h),MP-5(��Sv/h),MP-6(��Sv/h),MP-7(��Sv/h),MP-8(��Sv/h),����,����(m/s),���J
2019/05/13,00:00,0.766,1.131,0.774,1.427,1.046,0.436,0.770,0.731,�k�k��,2.5,��
2019/05/13,00:10,0.767,1.131,0.774,1.426,1.045,0.438,0.770,0.729,�k�k��,3.2,��
2019/05/13,00:20,0.768,1.132,0.774,1.427,1.046,0.436,0.771,0.729,�k�k��,2.3,��
2019/05/13,00:30,0.767,1.131,0.774,1.426,1.048,0.436,0.769,0.729,�k�k��,1.9,��
2019/05/13,00:40,0.767,1.132,0.775,1.425,1.046,0.435,0.771,0.729,�k��,2.0,��
2019/05/13,00:50,0.766,1.128,0.775,1.425,1.045,0.436,0.770,0.729,�k�k��,1.5,��
2019/05/13,01:00,0.768,1.133,0.775,1.426,1.044,0.436,0.770,0.727,�k,1.9,��
2019/05/13,01:10,0.768,1.128,0.774,1.427,1.047,0.437,0.772,0.729,�k�k��,2.0,��
2019/05/13,01:20,0.766,1.131,0.775,1.427,1.045,0.436,0.771,0.728,�k�k��,1.5,��
2019/05/13,01:30,0.766,1.131,0.774,1.427,1.046,0.436,0.771,0.730,�k�k��,2.6,��
2019/05/13,01:40,0.766,1.130,0.775,1.426,1.047,0.436,0.771,0.727,�k�k��,2.6,��
2019/05/13,01:50,0.767,1.131,0.776,1.427,1.047,0.435,0.771,0.729,�k,2.8,��
2019/05/13,02:00,0.765,1.133,0.775,1.425,1.046,0.435,0.770,0.731,�k,3.5,��
2019/05/13,02:10,0.768,1.130,0.774,1.427,1.046,0.436,0.771,0.729,�k,2.6,��
2019/05/13,02:20,0.767,1.131,0.776,1.425,1.045,0.436,0.771,0.730,�k�k��,3.1,��
2019/05/13,02:30,0.767,1.130,0.775,1.426,1.045,0.437,0.769,0.730,�k,2.8,��
2019/05/13,02:40,0.766,1.133,0.777,1.427,1.045,0.434,0.771,0.730,�k,3.1,��
2019/05/13,02:50,0.766,1.133,0.775,1.426,1.048,0.436,0.770,0.730,�k,3.5,��
2019/05/13,03:00,0.764,1.131,0.774,1.426,1.044,0.436,0.771,0.731,�k�k��,3.3,��
2019/05/13,03:10,0.767,1.130,0.776,1.424,1.046,0.436,0.772,0.729,�k�k��,3.2,��
2019/05/13,03:20,0.766,1.130,0.773,1.428,1.046,0.437,0.771,0.730,�k��,3.1,��
2019/05/13,03:30,0.767,1.131,0.777,1.427,1.046,0.436,0.770,0.731,�k��,2.9,��
2019/05/13,03:40,0.768,1.131,0.775,1.427,1.046,0.436,0.770,0.730,�k�k��,2.8,��
2019/05/13,03:50,0.766,1.129,0.776,1.427,1.044,0.437,0.772,0.728,�k��,3.1,��
2019/05/13,04:00,0.767,1.130,0.776,1.426,1.044,0.437,0.771,0.728,�k�k��,3.5,��
2019/05/13,04:10,0.766,1.131,0.774,1.425,1.045,0.437,0.769,0.729,�k�k��,3.2,��
2019/05/13,04:20,0.768,1.134,0.775,1.426,1.043,0.438,0.771,0.729,�k�k��,3.1,��
2019/05/13,04:30,0.765,1.128,0.774,1.427,1.045,0.437,0.771,0.731,�k�k��,2.3,��
2019/05/13,04:40,0.767,1.130,0.777,1.426,1.046,0.437,0.770,0.728,�k�k��,2.9,��
2019/05/13,04:50,0.767,1.132,0.774,1.425,1.045,0.437,0.771,0.728,�k�k��,2.6,��
2019/05/13,05:00,0.765,1.135,0.775,1.428,1.045,0.436,0.770,0.729,�k�k��,2.6,��
2019/05/13,05:10,0.765,1.132,0.774,1.427,1.046,0.436,0.771,0.730,�k�k��,2.5,��
2019/05/13,05:20,0.767,1.131,0.775,1.427,1.047,0.438,0.771,0.731,�k�k��,2.6,��
2019/05/13,05:30,0.765,1.133,0.776,1.426,1.048,0.436,0.772,0.729,�k�k��,2.5,��
2019/05/13,05:40,0.768,1.130,0.776,1.426,1.048,0.437,0.772,0.729,�k�k��,2.5,��
2019/05/13,05:50,0.767,1.129,0.775,1.426,1.045,0.437,0.771,0.730,�k��,3.0,��
2019/05/13,06:00,0.768,1.129,0.775,1.429,1.045,0.436,0.770,0.731,�k��,2.8,��
2019/05/13,06:10,0.768,1.131,0.775,1.428,1.045,0.437,0.769,0.731,�k��,2.5,��
2019/05/13,06:20,0.767,1.134,0.775,1.426,1.048,0.436,0.769,0.731,�k��,2.3,��
2019/05/13,06:30,0.768,1.130,0.773,1.428,1.047,0.438,0.770,0.731,�k�k��,2.0,��
2019/05/13,06:40,0.769,1.132,0.774,1.426,1.047,0.438,0.771,0.730,�k��,1.5,��
2019/05/13,06:50,0.768,1.132,0.776,1.426,1.046,0.437,0.770,0.731,�k��,1.2,��
2019/05/13,07:00,0.768,1.131,0.776,1.426,1.048,0.437,0.770,0.730,�k�k��,1.7,��
2019/05/13,07:10,0.768,1.133,0.776,1.427,1.048,0.437,0.770,0.732,�k,2.0,��
2019/05/13,07:20,0.768,1.130,0.776,1.427,1.047,0.435,0.770,0.731,�k,1.9,��
2019/05/13,07:30,0.770,1.132,0.775,1.427,1.050,0.437,0.771,0.731,���k��,2.5,��
2019/05/13,07:40,0.769,1.133,0.775,1.427,1.047,0.435,0.770,0.730,���k��,2.0,��
2019/05/13,07:50,0.768,1.132,0.776,1.427,1.047,0.437,0.772,0.729,���k��,2.0,��
2019/05/13,08:00,0.769,1.127,0.775,1.426,1.044,0.436,0.771,0.732,��,2.0,��
2019/05/13,08:10,0.769,1.130,0.776,1.428,1.047,0.434,0.771,0.730,���쓌,2.5,��
2019/05/13,08:20,0.769,1.129,0.777,1.427,1.048,0.434,0.770,0.730,���k��,2.3,��
2019/05/13,08:30,0.770,1.129,0.775,1.428,1.049,0.435,0.770,0.728,��,2.6,��
2019/05/13,08:40,0.769,1.128,0.776,1.427,1.050,0.435,0.771,0.729,��,2.3,��
2019/05/13,08:50,0.770,1.129,0.775,1.429,1.045,0.436,0.771,0.728,���k��,2.9,��
2019/05/13,09:00,0.768,1.129,0.774,1.428,1.047,0.435,0.770,0.728,��,2.9,��
2019/05/13,09:10,0.770,1.125,0.776,1.423,1.047,0.436,0.770,0.728,���k��,3.3,��
2019/05/13,09:20,0.771,1.126,0.776,1.425,1.044,0.436,0.769,0.728,���k��,2.8,��
2019/05/13,09:30,0.771,1.126,0.774,1.427,1.048,0.437,0.772,0.726,���k��,2.6,��
2019/05/13,09:40,0.770,1.126,0.776,1.427,1.049,0.430,0.771,0.727,�k��,3.3,��
2019/05/13,09:50,0.769,1.128,0.774,1.429,1.047,0.435,0.769,0.729,���쓌,3.3,��
2019/05/13,10:00,0.769,1.132,0.776,1.429,1.048,0.436,0.768,0.729,���k��,3.0,��
2019/05/13,10:10,0.770,1.130,0.773,1.428,1.047,0.436,0.772,0.728,��,2.9,��
2019/05/13,10:20,0.769,1.131,0.775,1.427,1.046,0.435,0.769,0.727,��,4.0,��
2019/05/13,10:30,0.766,1.129,0.776,1.430,1.049,0.434,0.771,0.728,��,3.3,��
2019/05/13,10:40,0.768,1.128,0.774,1.429,1.048,0.435,0.770,0.728,���쓌,3.7,��
2019/05/13,10:50,0.770,1.129,0.774,1.431,1.047,0.435,0.771,0.728,��,3.4,��
2019/05/13,11:00,0.768,1.132,0.775,1.431,1.046,0.436,0.771,0.728,��,3.7,��
2019/05/13,11:10,0.768,1.134,0.774,1.429,1.047,0.436,0.770,0.728,��,3.3,��
2019/05/13,11:20,0.770,1.132,0.774,1.430,1.049,0.434,0.770,0.728,���쓌,3.8,��
2019/05/13,11:30,0.769,1.130,0.774,1.427,1.048,0.436,0.771,0.727,���쓌,4.0,��
2019/05/13,11:40,0.770,1.129,0.775,1.426,1.046,0.435,0.769,0.728,��,3.4,��
2019/05/13,11:50,0.769,1.132,0.774,1.424,1.049,0.436,0.771,0.730,��,3.7,��
2019/05/13,12:00,0.769,1.134,0.776,1.424,1.050,0.437,0.771,0.727,��,3.3,��
2019/05/13,12:10,0.768,1.130,0.775,1.424,1.048,0.434,0.772,0.729,��,3.4,��
2019/05/13,12:20,0.769,1.132,0.775,1.425,1.051,0.434,0.770,0.731,��,3.2,��
2019/05/13,12:30,0.770,1.132,0.774,1.426,1.048,0.436,0.771,0.728,���쓌,4.5,��
2019/05/13,12:40,0.771,1.131,0.776,1.426,1.049,0.436,0.772,0.729,��,3.4,��
2019/05/13,12:50,0.771,1.130,0.775,1.423,1.048,0.435,0.771,0.727,��,3.7,��
2019/05/13,13:00,0.771,1.134,0.774,1.429,1.048,0.436,0.772,0.728,��,3.7,��
2019/05/13,13:10,0.771,1.132,0.775,1.428,1.048,0.437,0.770,0.729,��,4.0,��
2019/05/13,13:20,0.771,1.132,0.775,1.431,1.051,0.436,0.772,0.729,��,3.3,��
2019/05/13,13:30,0.770,1.131,0.776,1.429,1.051,0.436,0.771,0.728,��,3.3,��
2019/05/13,13:40,0.770,1.129,0.776,1.430,1.051,0.434,0.772,0.729,���쓌,3.7,��
2019/05/13,13:50,0.772,1.130,0.775,1.429,1.052,0.435,0.770,0.730,���쓌,4.1,��
2019/05/13,14:00,0.770,1.130,0.775,1.428,1.052,0.435,0.771,0.729,��,3.7,��
2019/05/13,14:10,0.771,1.131,0.777,1.425,1.051,0.435,0.772,0.729,��,3.8,��
2019/05/13,14:20,0.770,1.128,0.776,1.426,1.053,0.434,0.771,0.729,���쓌,3.8,��
2019/05/13,14:30,0.772,1.133,0.777,1.427,1.052,0.436,0.774,0.730,��,3.6,��
2019/05/13,14:40,0.769,1.133,0.776,1.428,1.050,0.437,0.772,0.730,���쓌,3.4,��
2019/05/13,14:50,0.769,1.133,0.778,1.428,1.050,0.437,0.772,0.728,���쓌,2.9,��
2019/05/13,15:00,0.770,1.133,0.776,1.430,1.052,0.435,0.772,0.727,���쓌,3.0,��
2019/05/13,15:10,0.770,1.131,0.774,1.427,1.049,0.436,0.771,0.730,���쓌,3.1,��
2019/05/13,15:20,0.770,1.132,0.774,1.426,1.048,0.437,0.772,0.728,��,2.8,��
2019/05/13,15:30,0.771,1.133,0.775,1.426,1.052,0.437,0.771,0.729,�쓌,3.2,��
2019/05/13,15:40,0.771,1.135,0.778,1.427,1.052,0.435,0.772,0.730,�쓌,3.4,��
2019/05/13,15:50,0.770,1.136,0.776,1.429,1.051,0.438,0.772,0.727,�쓌,3.0,��
2019/05/13,16:00,0.769,1.136,0.777,1.429,1.050,0.438,0.772,0.728,�쓌,3.0,��
2019/05/13,16:10,0.771,1.137,0.778,1.426,1.053,0.437,0.771,0.729,��,2.6,��
2019/05/13,16:20,0.770,1.137,0.778,1.428,1.051,0.437,0.770,0.728,��,2.6,��
2019/05/13,16:30,0.772,1.137,0.778,1.427,1.052,0.438,0.771,0.729,��,2.0,��
2019/05/13,16:40,0.770,1.136,0.776,1.427,1.053,0.437,0.772,0.728,��,2.3,��
2019/05/13,16:50,0.771,1.141,0.775,1.427,1.053,0.437,0.772,0.728,���쓌,2.5,��
2019/05/13,17:00,0.771,1.138,0.779,1.427,1.050,0.438,0.772,0.729,�쓌,2.5,��
2019/05/13,17:10,0.769,1.139,0.776,1.428,1.053,0.440,0.770,0.729,��,2.0,��
2019/05/13,17:20,0.770,1.139,0.776,1.429,1.050,0.438,0.771,0.730,��쓌,2.2,��
2019/05/13,17:30,0.770,1.140,0.777,1.429,1.051,0.438,0.770,0.730,���쓌,2.2,��
2019/05/13,17:40,0.770,1.140,0.776,1.429,1.050,0.440,0.770,0.731,��쓌,2.9,��
2019/05/13,17:50,0.771,1.137,0.776,1.427,1.050,0.438,0.772,0.731,��,2.0,��
2019/05/13,18:00,0.771,1.140,0.778,1.430,1.049,0.438,0.771,0.730,�쓌,2.6,��
2019/05/13,18:10,0.773,1.139,0.776,1.430,1.050,0.438,0.773,0.731,��,1.5,��
2019/05/13,18:20,0.775,1.141,0.776,1.431,1.049,0.438,0.771,0.730,��쓌,2.3,��
2019/05/13,18:30,0.774,1.138,0.777,1.429,1.052,0.439,0.770,0.730,��쓌,1.2,��
2019/05/13,18:40,0.772,1.139,0.778,1.431,1.052,0.437,0.770,0.730,��,1.2,��
2019/05/13,18:50,0.774,1.139,0.779,1.434,1.051,0.438,0.773,0.731,��,1.7,��
2019/05/13,19:00,0.771,1.137,0.778,1.430,1.052,0.439,0.771,0.732,��,2.0,��
2019/05/13,19:10,0.772,1.138,0.778,1.432,1.052,0.438,0.770,0.730,��,2.3,��
2019/05/13,19:20,0.774,1.138,0.779,1.429,1.052,0.438,0.771,0.731,��,3.0,��
2019/05/13,19:30,0.773,1.138,0.778,1.432,1.050,0.438,0.771,0.732,��쓌,3.1,��
2019/05/13,19:40,0.775,1.137,0.777,1.432,1.053,0.437,0.774,0.729,��쓌,3.0,��
2019/05/13,19:50,0.774,1.139,0.780,1.430,1.052,0.439,0.772,0.731,��쓌,2.6,��
2019/05/13,20:00,0.774,1.137,0.780,1.430,1.053,0.438,0.774,0.730,��쓌,2.3,��
2019/05/13,20:10,0.773,1.138,0.777,1.429,1.051,0.440,0.772,0.732,��,2.8,��
2019/05/13,20:20,0.773,1.138,0.778,1.433,1.051,0.438,0.774,0.731,��쓌,3.0,��
2019/05/13,20:30,0.773,1.137,0.778,1.430,1.053,0.439,0.774,0.730,��쓌,2.5,��
2019/05/13,20:40,0.773,1.138,0.780,1.432,1.052,0.439,0.774,0.732,��쓌,2.9,��
2019/05/13,20:50,0.773,1.140,0.780,1.430,1.051,0.438,0.773,0.732,��쓌,1.9,��
2019/05/13,21:00,0.773,1.138,0.779,1.430,1.052,0.439,0.772,0.731,��쓌,2.0,��
2019/05/13,21:10,0.774,1.139,0.778,1.433,1.054,0.439,0.774,0.731,�쓌,0.6,��
2019/05/13,21:20,0.773,1.138,0.779,1.433,1.052,0.439,0.772,0.730,-,CALM,��
2019/05/13,21:30,0.774,1.139,0.779,1.432,1.051,0.438,0.772,0.730,�쓌,1.1,��
2019/05/13,21:40,0.773,1.136,0.779,1.429,1.052,0.438,0.771,0.729,��,0.8,��
2019/05/13,21:50,0.772,1.138,0.778,1.432,1.050,0.439,0.771,0.730,��쓌,1.2,��
2019/05/13,22:00,0.773,1.138,0.778,1.431,1.053,0.439,0.774,0.730,���쓌,1.5,��
2019/05/13,22:10,0.775,1.138,0.778,1.430,1.053,0.440,0.771,0.731,���쓌,1.7,��
2019/05/13,22:20,0.772,1.134,0.777,1.430,1.052,0.438,0.771,0.731,�쓌,1.7,��
2019/05/13,22:30,0.773,1.136,0.777,1.430,1.052,0.439,0.771,0.730,�쓌,1.1,��
2019/05/13,22:40,0.773,1.136,0.778,1.432,1.051,0.439,0.772,0.731,�쓌,1.4,��
2019/05/13,22:50,0.773,1.136,0.777,1.431,1.051,0.438,0.773,0.730,��쓌,1.2,��
2019/05/13,23:00,0.774,1.134,0.779,1.433,1.051,0.439,0.772,0.732,��쐼,1.1,��
2019/05/13,23:10,0.773,1.135,0.777,1.431,1.052,0.439,0.774,0.731,��쐼,1.4,��
2019/05/13,23:20,0.773,1.134,0.779,1.431,1.050,0.438,0.773,0.732,��,1.7,��
2019/05/13,23:30,0.772,1.136,0.780,1.430,1.053,0.439,0.773,0.729,��,3.0,��
2019/05/13,23:40,0.770,1.135,0.778,1.431,1.052,0.439,0.772,0.731,��,3.0,��
2019/05/13,23:50,0.775,1.137,0.780,1.430,1.052,0.439,0.774,0.731,��,3.9,��
